Year,Month,Day,Hour,Minute,Value (Times are PST for windgust in km/hr)
2012,01,22,00,00,17.70
2012,01,22,00,01,17.70
2012,01,22,00,02,11.30
2012,01,22,00,03,9.60
2012,01,22,00,04,14.50
2012,01,22,00,05,9.60
2012,01,22,00,06,6.40
2012,01,22,00,07,9.60
2012,01,22,00,08,6.40
2012,01,22,00,09,12.90
2012,01,22,00,10,19.30
2012,01,22,00,11,11.30
2012,01,22,00,12,24.20
2012,01,22,00,13,14.50
2012,01,22,00,14,16.10
2012,01,22,00,15,14.50
2012,01,22,00,16,14.50
2012,01,22,00,17,19.30
2012,01,22,00,18,8.10
2012,01,22,00,19,19.30
2012,01,22,00,20,17.70
2012,01,22,00,21,14.50
2012,01,22,00,22,11.30
2012,01,22,00,23,22.50
2012,01,22,00,24,16.10
2012,01,22,00,25,19.30
2012,01,22,00,26,11.30
2012,01,22,00,27,16.10
2012,01,22,00,28,20.90
2012,01,22,00,29,19.30
2012,01,22,00,30,8.10
2012,01,22,00,31,9.60
2012,01,22,00,32,11.30
2012,01,22,00,33,11.30
2012,01,22,00,34,11.30
2012,01,22,00,35,19.30
2012,01,22,00,36,11.30
2012,01,22,00,37,11.30
2012,01,22,00,38,8.10
2012,01,22,00,39,6.40
2012,01,22,00,40,11.30
2012,01,22,00,41,14.50
2012,01,22,00,42,9.60
2012,01,22,00,43,17.70
2012,01,22,00,44,9.60
2012,01,22,00,45,14.50
2012,01,22,00,46,19.30
2012,01,22,00,47,19.30
2012,01,22,00,48,17.70
2012,01,22,00,49,20.90
2012,01,22,00,50,12.90
2012,01,22,00,51,11.30
2012,01,22,00,52,16.10
2012,01,22,00,53,11.30
2012,01,22,00,54,11.30
2012,01,22,00,55,11.30
2012,01,22,00,56,14.50
2012,01,22,00,57,20.90
2012,01,22,00,58,16.10
2012,01,22,00,59,9.60
2012,01,22,01,00,9.60
2012,01,22,01,01,17.70
2012,01,22,01,02,16.10
2012,01,22,01,03,19.30
2012,01,22,01,04,14.50
2012,01,22,01,05,11.30
2012,01,22,01,06,9.60
2012,01,22,01,07,11.30
2012,01,22,01,08,8.10
2012,01,22,01,09,8.10
2012,01,22,01,10,11.30
2012,01,22,01,11,17.70
2012,01,22,01,12,22.50
2012,01,22,01,13,19.30
2012,01,22,01,14,9.60
2012,01,22,01,15,16.10
2012,01,22,01,16,19.30
2012,01,22,01,17,19.30
2012,01,22,01,18,9.60
2012,01,22,01,19,20.90
2012,01,22,01,20,16.10
2012,01,22,01,21,11.30
2012,01,22,01,22,11.30
2012,01,22,01,23,19.30
2012,01,22,01,24,19.30
2012,01,22,01,25,16.10
2012,01,22,01,26,11.30
2012,01,22,01,27,6.40
2012,01,22,01,28,9.60
2012,01,22,01,29,8.10
2012,01,22,01,30,11.30
2012,01,22,01,31,9.60
2012,01,22,01,32,11.30
2012,01,22,01,33,11.30
2012,01,22,01,34,6.40
2012,01,22,01,35,9.60
2012,01,22,01,36,20.90
2012,01,22,01,37,19.30
2012,01,22,01,38,8.10
2012,01,22,01,39,6.40
2012,01,22,01,40,6.40
2012,01,22,01,41,9.60
2012,01,22,01,42,14.50
2012,01,22,01,43,17.70
2012,01,22,01,44,8.10
2012,01,22,01,45,11.30
2012,01,22,01,46,9.60
2012,01,22,01,47,16.10
2012,01,22,01,48,16.10
2012,01,22,01,49,14.50
2012,01,22,01,50,12.90
2012,01,22,01,51,12.90
2012,01,22,01,52,14.50
2012,01,22,01,53,9.60
2012,01,22,01,54,11.30
2012,01,22,01,55,14.50
2012,01,22,01,56,9.60
2012,01,22,01,57,14.50
2012,01,22,01,58,9.60
2012,01,22,01,59,8.10
2012,01,22,02,00,6.40
2012,01,22,02,01,6.40
2012,01,22,02,02,9.60
2012,01,22,02,03,8.10
2012,01,22,02,04,11.30
2012,01,22,02,05,8.10
2012,01,22,02,06,8.10
2012,01,22,02,07,8.10
2012,01,22,02,08,8.10
2012,01,22,02,09,8.10
2012,01,22,02,10,6.40
2012,01,22,02,11,6.40
2012,01,22,02,12,8.10
2012,01,22,02,13,9.60
2012,01,22,02,14,9.60
2012,01,22,02,15,9.60
2012,01,22,02,16,9.60
2012,01,22,02,17,16.10
2012,01,22,02,18,11.30
2012,01,22,02,19,9.60
2012,01,22,02,20,11.30
2012,01,22,02,21,9.60
2012,01,22,02,22,14.50
2012,01,22,02,23,11.30
2012,01,22,02,24,17.70
2012,01,22,02,25,16.10
2012,01,22,02,26,16.10
2012,01,22,02,27,11.30
2012,01,22,02,28,14.50
2012,01,22,02,29,14.50
2012,01,22,02,30,17.70
2012,01,22,02,31,14.50
2012,01,22,02,32,16.10
2012,01,22,02,33,19.30
2012,01,22,02,34,14.50
2012,01,22,02,35,14.50
2012,01,22,02,36,11.30
2012,01,22,02,37,16.10
2012,01,22,02,38,8.10
2012,01,22,02,39,8.10
2012,01,22,02,40,8.10
2012,01,22,02,41,9.60
2012,01,22,02,42,8.10
2012,01,22,02,43,8.10
2012,01,22,02,44,17.70
2012,01,22,02,45,16.10
2012,01,22,02,46,11.30
2012,01,22,02,47,6.40
2012,01,22,02,48,8.10
2012,01,22,02,49,6.40
2012,01,22,02,50,6.40
2012,01,22,02,51,9.60
2012,01,22,02,52,11.30
2012,01,22,02,53,9.60
2012,01,22,02,54,11.30
2012,01,22,02,55,12.90
2012,01,22,02,56,9.60
2012,01,22,02,57,8.10
2012,01,22,02,58,16.10
2012,01,22,02,59,14.50
2012,01,22,03,00,12.90
2012,01,22,03,01,16.10
2012,01,22,03,02,11.30
2012,01,22,03,03,14.50
2012,01,22,03,04,6.40
2012,01,22,03,05,14.50
2012,01,22,03,06,16.10
2012,01,22,03,07,16.10
2012,01,22,03,08,14.50
2012,01,22,03,09,14.50
2012,01,22,03,10,19.30
2012,01,22,03,11,14.50
2012,01,22,03,12,11.30
2012,01,22,03,13,14.50
2012,01,22,03,14,19.30
2012,01,22,03,15,17.70
2012,01,22,03,16,17.70
2012,01,22,03,17,20.90
2012,01,22,03,18,17.70
2012,01,22,03,19,11.30
2012,01,22,03,20,14.50
2012,01,22,03,21,16.10
2012,01,22,03,22,17.70
2012,01,22,03,23,17.70
2012,01,22,03,24,20.90
2012,01,22,03,25,8.10
2012,01,22,03,26,11.30
2012,01,22,03,27,14.50
2012,01,22,03,28,8.10
2012,01,22,03,29,11.30
2012,01,22,03,30,19.30
2012,01,22,03,31,11.30
2012,01,22,03,32,19.30
2012,01,22,03,33,14.50
2012,01,22,03,34,11.30
2012,01,22,03,35,17.70
2012,01,22,03,36,14.50
2012,01,22,03,37,17.70
2012,01,22,03,38,19.30
2012,01,22,03,39,19.30
2012,01,22,03,40,17.70
2012,01,22,03,41,16.10
2012,01,22,03,42,20.90
2012,01,22,03,43,11.30
2012,01,22,03,44,17.70
2012,01,22,03,45,24.20
2012,01,22,03,46,19.30
2012,01,22,03,47,9.60
2012,01,22,03,48,11.30
2012,01,22,03,49,19.30
2012,01,22,03,50,16.10
2012,01,22,03,51,11.30
2012,01,22,03,52,17.70
2012,01,22,03,53,24.20
2012,01,22,03,54,19.30
2012,01,22,03,55,9.60
2012,01,22,03,56,19.30
2012,01,22,03,57,16.10
2012,01,22,03,58,19.30
2012,01,22,03,59,16.10
2012,01,22,04,00,19.30
2012,01,22,04,01,17.70
2012,01,22,04,02,20.90
2012,01,22,04,03,19.30
2012,01,22,04,04,19.30
2012,01,22,04,05,17.70
2012,01,22,04,06,16.10
2012,01,22,04,07,9.60
2012,01,22,04,08,17.70
2012,01,22,04,09,19.30
2012,01,22,04,10,17.70
2012,01,22,04,11,19.30
2012,01,22,04,12,20.90
2012,01,22,04,13,19.30
2012,01,22,04,14,11.30
2012,01,22,04,15,19.30
2012,01,22,04,16,17.70
2012,01,22,04,17,14.50
2012,01,22,04,18,14.50
2012,01,22,04,19,17.70
2012,01,22,04,20,19.30
2012,01,22,04,21,14.50
2012,01,22,04,22,17.70
2012,01,22,04,23,12.90
2012,01,22,04,24,27.40
2012,01,22,04,25,25.70
2012,01,22,04,26,20.90
2012,01,22,04,27,24.20
2012,01,22,04,28,20.90
2012,01,22,04,29,19.30
2012,01,22,04,30,19.30
2012,01,22,04,31,17.70
2012,01,22,04,32,24.20
2012,01,22,04,33,19.30
2012,01,22,04,34,22.50
2012,01,22,04,35,17.70
2012,01,22,04,36,27.40
2012,01,22,04,37,22.50
2012,01,22,04,38,19.30
2012,01,22,04,39,24.20
2012,01,22,04,40,22.50
2012,01,22,04,41,25.70
2012,01,22,04,42,24.20
2012,01,22,04,43,11.30
2012,01,22,04,44,33.80
2012,01,22,04,45,27.40
2012,01,22,04,46,30.60
2012,01,22,04,47,38.60
2012,01,22,04,48,20.90
2012,01,22,04,49,22.50
2012,01,22,04,50,32.20
2012,01,22,04,51,27.40
2012,01,22,04,52,24.20
2012,01,22,04,53,22.50
2012,01,22,04,54,25.70
2012,01,22,04,55,12.90
2012,01,22,04,56,19.30
2012,01,22,04,57,22.50
2012,01,22,04,58,33.80
2012,01,22,04,59,33.80
2012,01,22,05,00,32.20
2012,01,22,05,01,27.40
2012,01,22,05,02,24.20
2012,01,22,05,03,19.30
2012,01,22,05,04,29.00
2012,01,22,05,05,22.50
2012,01,22,05,06,33.80
2012,01,22,05,07,27.40
2012,01,22,05,08,22.50
2012,01,22,05,09,43.50
2012,01,22,05,10,32.20
2012,01,22,05,11,25.70
2012,01,22,05,12,33.80
2012,01,22,05,13,35.40
2012,01,22,05,14,29.00
2012,01,22,05,15,33.80
2012,01,22,05,16,25.70
2012,01,22,05,17,22.50
2012,01,22,05,18,33.80
2012,01,22,05,19,29.00
2012,01,22,05,20,27.40
2012,01,22,05,21,30.60
2012,01,22,05,22,37.00
2012,01,22,05,23,35.40
2012,01,22,05,24,33.80
2012,01,22,05,25,32.20
2012,01,22,05,26,37.00
2012,01,22,05,27,22.50
2012,01,22,05,28,22.50
2012,01,22,05,29,41.80
2012,01,22,05,30,20.90
2012,01,22,05,31,30.60
2012,01,22,05,32,37.00
2012,01,22,05,33,32.20
2012,01,22,05,34,33.80
2012,01,22,05,35,29.00
2012,01,22,05,36,32.20
2012,01,22,05,37,22.50
2012,01,22,05,38,27.40
2012,01,22,05,39,25.70
2012,01,22,05,40,30.60
2012,01,22,05,41,29.00
2012,01,22,05,42,27.40
2012,01,22,05,43,35.40
2012,01,22,05,44,35.40
2012,01,22,05,45,35.40
2012,01,22,05,46,30.60
2012,01,22,05,47,29.00
2012,01,22,05,48,45.10
2012,01,22,05,49,45.10
2012,01,22,05,50,37.00
2012,01,22,05,51,38.60
2012,01,22,05,52,38.60
2012,01,22,05,53,33.80
2012,01,22,05,54,32.20
2012,01,22,05,55,29.00
2012,01,22,05,56,27.40
2012,01,22,05,57,43.50
2012,01,22,05,58,37.00
2012,01,22,05,59,33.80
2012,01,22,06,00,30.60
2012,01,22,06,01,33.80
2012,01,22,06,02,41.80
2012,01,22,06,03,25.70
2012,01,22,06,04,32.20
2012,01,22,06,05,20.90
2012,01,22,06,06,37.00
2012,01,22,06,07,30.60
2012,01,22,06,08,32.20
2012,01,22,06,09,17.70
2012,01,22,06,10,30.60
2012,01,22,06,11,30.60
2012,01,22,06,12,33.80
2012,01,22,06,13,40.20
2012,01,22,06,14,25.70
2012,01,22,06,15,24.20
2012,01,22,06,16,38.60
2012,01,22,06,17,27.40
2012,01,22,06,18,30.60
2012,01,22,06,19,37.00
2012,01,22,06,20,35.40
2012,01,22,06,21,29.00
2012,01,22,06,22,29.00
2012,01,22,06,23,25.70
2012,01,22,06,24,27.40
2012,01,22,06,25,27.40
2012,01,22,06,26,35.40
2012,01,22,06,27,40.20
2012,01,22,06,28,25.70
2012,01,22,06,29,25.70
2012,01,22,06,30,35.40
2012,01,22,06,31,33.80
2012,01,22,06,32,32.20
2012,01,22,06,33,30.60
2012,01,22,06,34,33.80
2012,01,22,06,35,40.20
2012,01,22,06,36,30.60
2012,01,22,06,37,35.40
2012,01,22,06,38,32.20
2012,01,22,06,39,35.40
2012,01,22,06,40,35.40
2012,01,22,06,41,35.40
2012,01,22,06,42,32.20
2012,01,22,06,43,30.60
2012,01,22,06,44,35.40
2012,01,22,06,45,33.80
2012,01,22,06,46,30.60
2012,01,22,06,47,30.60
2012,01,22,06,48,32.20
2012,01,22,06,49,32.20
2012,01,22,06,50,33.80
2012,01,22,06,51,27.40
2012,01,22,06,52,24.20
2012,01,22,06,53,22.50
2012,01,22,06,54,22.50
2012,01,22,06,55,25.70
2012,01,22,06,56,25.70
2012,01,22,06,57,27.40
2012,01,22,06,58,17.70
2012,01,22,06,59,25.70
2012,01,22,07,00,22.50
2012,01,22,07,01,24.20
2012,01,22,07,02,17.70
2012,01,22,07,03,19.30
2012,01,22,07,04,24.20
2012,01,22,07,05,25.70
2012,01,22,07,06,22.50
2012,01,22,07,07,30.60
2012,01,22,07,08,40.20
2012,01,22,07,09,49.90
2012,01,22,07,10,38.60
2012,01,22,07,11,38.60
2012,01,22,07,12,35.40
2012,01,22,07,13,33.80
2012,01,22,07,14,37.00
2012,01,22,07,15,35.40
2012,01,22,07,16,37.00
2012,01,22,07,17,32.20
2012,01,22,07,18,27.40
2012,01,22,07,19,37.00
2012,01,22,07,20,43.50
2012,01,22,07,21,33.80
2012,01,22,07,22,35.40
2012,01,22,07,23,30.60
2012,01,22,07,24,37.00
2012,01,22,07,25,33.80
2012,01,22,07,26,32.20
2012,01,22,07,27,29.00
2012,01,22,07,28,35.40
2012,01,22,07,29,43.50
2012,01,22,07,30,30.60
2012,01,22,07,31,40.20
2012,01,22,07,32,43.50
2012,01,22,07,33,37.00
2012,01,22,07,34,49.90
2012,01,22,07,35,43.50
2012,01,22,07,36,33.80
2012,01,22,07,37,38.60
2012,01,22,07,38,45.10
2012,01,22,07,39,49.90
2012,01,22,07,40,48.30
2012,01,22,07,41,53.10
2012,01,22,07,42,48.30
2012,01,22,07,43,35.40
2012,01,22,07,44,38.60
2012,01,22,07,45,37.00
2012,01,22,07,46,43.50
2012,01,22,07,47,43.50
2012,01,22,07,48,41.80
2012,01,22,07,49,41.80
2012,01,22,07,50,32.20
2012,01,22,07,51,40.20
2012,01,22,07,52,33.80
2012,01,22,07,53,32.20
2012,01,22,07,54,40.20
2012,01,22,07,55,43.50
2012,01,22,07,56,48.30
2012,01,22,07,57,33.80
2012,01,22,07,58,53.10
2012,01,22,07,59,37.00
2012,01,22,08,00,43.50
2012,01,22,08,01,56.30
2012,01,22,08,02,43.50
2012,01,22,08,03,32.20
2012,01,22,08,04,40.20
2012,01,22,08,05,49.90
2012,01,22,08,06,49.90
2012,01,22,08,07,41.80
2012,01,22,08,08,33.80
2012,01,22,08,09,40.20
2012,01,22,08,10,41.80
2012,01,22,08,11,37.00
2012,01,22,08,12,45.10
2012,01,22,08,13,41.80
2012,01,22,08,14,38.60
2012,01,22,08,15,51.50
2012,01,22,08,16,35.40
2012,01,22,08,17,45.10
2012,01,22,08,18,37.00
2012,01,22,08,19,38.60
2012,01,22,08,20,29.00
2012,01,22,08,21,46.70
2012,01,22,08,22,40.20
2012,01,22,08,23,35.40
2012,01,22,08,24,41.80
2012,01,22,08,25,40.20
2012,01,22,08,26,35.40
2012,01,22,08,27,35.40
2012,01,22,08,28,41.80
2012,01,22,08,29,38.60
2012,01,22,08,30,35.40
2012,01,22,08,31,35.40
2012,01,22,08,32,30.60
2012,01,22,08,33,25.70
2012,01,22,08,34,43.50
2012,01,22,08,35,38.60
2012,01,22,08,36,30.60
2012,01,22,08,37,46.70
2012,01,22,08,38,25.70
2012,01,22,08,39,32.20
2012,01,22,08,40,40.20
2012,01,22,08,41,25.70
2012,01,22,08,42,33.80
2012,01,22,08,43,30.60
2012,01,22,08,44,37.00
2012,01,22,08,45,41.80
2012,01,22,08,46,40.20
2012,01,22,08,47,40.20
2012,01,22,08,48,35.40
2012,01,22,08,49,33.80
2012,01,22,08,50,25.70
2012,01,22,08,51,30.60
2012,01,22,08,52,25.70
2012,01,22,08,53,37.00
2012,01,22,08,54,35.40
2012,01,22,08,55,35.40
2012,01,22,08,56,22.50
2012,01,22,08,57,33.80
2012,01,22,08,58,22.50
2012,01,22,08,59,27.40
2012,01,22,09,00,27.40
2012,01,22,09,01,25.70
2012,01,22,09,02,35.40
2012,01,22,09,03,27.40
2012,01,22,09,04,22.50
2012,01,22,09,05,32.20
2012,01,22,09,06,29.00
2012,01,22,09,07,22.50
2012,01,22,09,08,30.60
2012,01,22,09,09,29.00
2012,01,22,09,10,24.20
2012,01,22,09,11,37.00
2012,01,22,09,12,35.40
2012,01,22,09,13,35.40
2012,01,22,09,14,33.80
2012,01,22,09,15,17.70
2012,01,22,09,16,25.70
2012,01,22,09,17,22.50
2012,01,22,09,18,32.20
2012,01,22,09,19,30.60
2012,01,22,09,20,30.60
2012,01,22,09,21,35.40
2012,01,22,09,22,40.20
2012,01,22,09,23,35.40
2012,01,22,09,24,38.60
2012,01,22,09,25,33.80
2012,01,22,09,26,29.00
2012,01,22,09,27,30.60
2012,01,22,09,28,35.40
2012,01,22,09,29,35.40
2012,01,22,09,30,38.60
2012,01,22,09,31,43.50
2012,01,22,09,32,40.20
2012,01,22,09,33,37.00
2012,01,22,09,34,41.80
2012,01,22,09,35,37.00
2012,01,22,09,36,40.20
2012,01,22,09,37,51.50
2012,01,22,09,38,38.60
2012,01,22,09,39,30.60
2012,01,22,09,40,40.20
2012,01,22,09,41,43.50
2012,01,22,09,42,43.50
2012,01,22,09,43,37.00
2012,01,22,09,44,48.30
2012,01,22,09,45,57.90
2012,01,22,09,46,45.10
2012,01,22,09,47,45.10
2012,01,22,09,48,41.80
2012,01,22,09,49,40.20
2012,01,22,09,50,37.00
2012,01,22,09,51,41.80
2012,01,22,09,52,41.80
2012,01,22,09,53,37.00
2012,01,22,09,54,37.00
2012,01,22,09,55,45.10
2012,01,22,09,56,41.80
2012,01,22,09,57,46.70
2012,01,22,09,58,32.20
2012,01,22,09,59,27.40
2012,01,22,10,00,32.20
2012,01,22,10,01,29.00
2012,01,22,10,02,35.40
2012,01,22,10,03,27.40
2012,01,22,10,04,32.20
2012,01,22,10,05,32.20
2012,01,22,10,06,19.30
2012,01,22,10,07,27.40
2012,01,22,10,08,35.40
2012,01,22,10,09,33.80
2012,01,22,10,10,27.40
2012,01,22,10,11,20.90
2012,01,22,10,12,22.50
2012,01,22,10,13,33.80
2012,01,22,10,14,24.20
2012,01,22,10,15,37.00
2012,01,22,10,16,25.70
2012,01,22,10,17,35.40
2012,01,22,10,18,40.20
2012,01,22,10,19,40.20
2012,01,22,10,20,35.40
2012,01,22,10,21,29.00
2012,01,22,10,22,30.60
2012,01,22,10,23,37.00
2012,01,22,10,24,37.00
2012,01,22,10,25,37.00
2012,01,22,10,26,35.40
2012,01,22,10,27,41.80
2012,01,22,10,28,25.70
2012,01,22,10,29,27.40
2012,01,22,10,30,25.70
2012,01,22,10,31,40.20
2012,01,22,10,32,33.80
2012,01,22,10,33,45.10
2012,01,22,10,34,38.60
2012,01,22,10,35,25.70
2012,01,22,10,36,24.20
2012,01,22,10,37,32.20
2012,01,22,10,38,35.40
2012,01,22,10,39,29.00
2012,01,22,10,40,38.60
2012,01,22,10,41,40.20
2012,01,22,10,42,40.20
2012,01,22,10,43,40.20
2012,01,22,10,44,51.50
2012,01,22,10,45,48.30
2012,01,22,10,46,45.10
2012,01,22,10,47,51.50
2012,01,22,10,48,38.60
2012,01,22,10,49,45.10
2012,01,22,10,50,29.00
2012,01,22,10,51,33.80
2012,01,22,10,52,41.80
2012,01,22,10,53,30.60
2012,01,22,10,54,32.20
2012,01,22,10,55,37.00
2012,01,22,10,56,59.50
2012,01,22,10,57,37.00
2012,01,22,10,58,46.70
2012,01,22,10,59,46.70
2012,01,22,11,00,41.80
2012,01,22,11,01,45.10
2012,01,22,11,02,51.50
2012,01,22,11,03,51.50
2012,01,22,11,04,51.50
2012,01,22,11,05,45.10
2012,01,22,11,06,51.50
2012,01,22,11,07,33.80
2012,01,22,11,08,35.40
2012,01,22,11,09,35.40
2012,01,22,11,10,51.50
2012,01,22,11,11,43.50
2012,01,22,11,12,53.10
2012,01,22,11,13,49.90
2012,01,22,11,14,38.60
2012,01,22,11,15,40.20
2012,01,22,11,16,32.20
2012,01,22,11,17,35.40
2012,01,22,11,18,41.80
2012,01,22,11,19,33.80
2012,01,22,11,20,48.30
2012,01,22,11,21,59.50
2012,01,22,11,22,32.20
2012,01,22,11,23,53.10
2012,01,22,11,24,40.20
2012,01,22,11,25,56.30
2012,01,22,11,26,53.10
2012,01,22,11,27,54.70
2012,01,22,11,28,56.30
2012,01,22,11,29,27.40
2012,01,22,11,30,33.80
2012,01,22,11,31,53.10
2012,01,22,11,32,40.20
2012,01,22,11,33,49.90
2012,01,22,11,34,48.30
2012,01,22,11,35,33.80
2012,01,22,11,36,49.90
2012,01,22,11,37,40.20
2012,01,22,11,38,53.10
2012,01,22,11,39,75.60
2012,01,22,11,40,51.50
2012,01,22,11,41,48.30
2012,01,22,11,42,41.80
2012,01,22,11,43,53.10
2012,01,22,11,44,48.30
2012,01,22,11,45,43.50
2012,01,22,11,46,59.50
2012,01,22,11,47,43.50
2012,01,22,11,48,66.00
2012,01,22,11,49,49.90
2012,01,22,11,50,38.60
2012,01,22,11,51,51.50
2012,01,22,11,52,54.70
2012,01,22,11,53,49.90
2012,01,22,11,54,49.90
2012,01,22,11,55,43.50
2012,01,22,11,56,40.20
2012,01,22,11,57,56.30
2012,01,22,11,58,38.60
2012,01,22,11,59,46.70
2012,01,22,12,00,40.20
2012,01,22,12,01,48.30
2012,01,22,12,02,43.50
2012,01,22,12,03,43.50
2012,01,22,12,04,43.50
2012,01,22,12,05,53.10
2012,01,22,12,06,43.50
2012,01,22,12,07,43.50
2012,01,22,12,08,43.50
2012,01,22,12,09,51.50
2012,01,22,12,10,48.30
2012,01,22,12,11,37.00
2012,01,22,12,12,45.10
2012,01,22,12,13,46.70
2012,01,22,12,14,25.70
2012,01,22,12,15,48.30
2012,01,22,12,16,51.50
2012,01,22,12,17,43.50
2012,01,22,12,18,40.20
2012,01,22,12,19,41.80
2012,01,22,12,20,38.60
2012,01,22,12,21,38.60
2012,01,22,12,22,29.00
2012,01,22,12,23,27.40
2012,01,22,12,24,24.20
2012,01,22,12,25,35.40
2012,01,22,12,26,35.40
2012,01,22,12,27,40.20
2012,01,22,12,28,46.70
2012,01,22,12,29,41.80
2012,01,22,12,30,46.70
2012,01,22,12,31,40.20
2012,01,22,12,32,37.00
2012,01,22,12,33,32.20
2012,01,22,12,34,53.10
2012,01,22,12,35,37.00
2012,01,22,12,36,41.80
2012,01,22,12,37,35.40
2012,01,22,12,38,40.20
2012,01,22,12,39,43.50
2012,01,22,12,40,29.00
2012,01,22,12,41,29.00
2012,01,22,12,42,41.80
2012,01,22,12,43,46.70
2012,01,22,12,44,43.50
2012,01,22,12,45,37.00
2012,01,22,12,46,37.00
2012,01,22,12,47,37.00
2012,01,22,12,48,43.50
2012,01,22,12,49,54.70
2012,01,22,12,50,53.10
2012,01,22,12,51,43.50
2012,01,22,12,52,37.00
2012,01,22,12,53,49.90
2012,01,22,12,54,35.40
2012,01,22,12,55,30.60
2012,01,22,12,56,40.20
2012,01,22,12,57,33.80
2012,01,22,12,58,30.60
2012,01,22,12,59,40.20
2012,01,22,13,00,40.20
2012,01,22,13,01,29.00
2012,01,22,13,02,29.00
2012,01,22,13,03,45.10
2012,01,22,13,04,33.80
2012,01,22,13,05,49.90
2012,01,22,13,06,32.20
2012,01,22,13,07,37.00
2012,01,22,13,08,37.00
2012,01,22,13,09,40.20
2012,01,22,13,10,40.20
2012,01,22,13,11,27.40
2012,01,22,13,12,30.60
2012,01,22,13,13,32.20
2012,01,22,13,14,38.60
2012,01,22,13,15,30.60
2012,01,22,13,16,30.60
2012,01,22,13,17,46.70
2012,01,22,13,18,41.80
2012,01,22,13,19,45.10
2012,01,22,13,20,38.60
2012,01,22,13,21,51.50
2012,01,22,13,22,41.80
2012,01,22,13,23,33.80
2012,01,22,13,24,35.40
2012,01,22,13,25,33.80
2012,01,22,13,26,37.00
2012,01,22,13,27,33.80
2012,01,22,13,28,41.80
2012,01,22,13,29,45.10
2012,01,22,13,30,41.80
2012,01,22,13,31,43.50
2012,01,22,13,32,41.80
2012,01,22,13,33,38.60
2012,01,22,13,34,43.50
2012,01,22,13,35,43.50
2012,01,22,13,36,37.00
2012,01,22,13,37,53.10
2012,01,22,13,38,35.40
2012,01,22,13,39,33.80
2012,01,22,13,40,38.60
2012,01,22,13,41,41.80
2012,01,22,13,42,27.40
2012,01,22,13,43,27.40
2012,01,22,13,44,43.50
2012,01,22,13,45,49.90
2012,01,22,13,46,41.80
2012,01,22,13,47,33.80
2012,01,22,13,48,45.10
2012,01,22,13,49,45.10
2012,01,22,13,50,46.70
2012,01,22,13,51,48.30
2012,01,22,13,52,30.60
2012,01,22,13,53,43.50
2012,01,22,13,54,49.90
2012,01,22,13,55,43.50
2012,01,22,13,56,38.60
2012,01,22,13,57,45.10
2012,01,22,13,58,49.90
2012,01,22,13,59,43.50
2012,01,22,14,00,38.60
2012,01,22,14,01,45.10
2012,01,22,14,02,40.20
2012,01,22,14,03,43.50
2012,01,22,14,04,41.80
2012,01,22,14,05,35.40
2012,01,22,14,06,38.60
2012,01,22,14,07,48.30
2012,01,22,14,08,38.60
2012,01,22,14,09,43.50
2012,01,22,14,10,40.20
2012,01,22,14,11,38.60
2012,01,22,14,12,41.80
2012,01,22,14,13,32.20
2012,01,22,14,14,22.50
2012,01,22,14,15,29.00
2012,01,22,14,16,43.50
2012,01,22,14,17,22.50
2012,01,22,14,18,35.40
2012,01,22,14,19,40.20
2012,01,22,14,20,33.80
2012,01,22,14,21,41.80
2012,01,22,14,22,33.80
2012,01,22,14,23,48.30
2012,01,22,14,24,45.10
2012,01,22,14,25,38.60
2012,01,22,14,26,35.40
2012,01,22,14,27,29.00
2012,01,22,14,28,20.90
2012,01,22,14,29,33.80
2012,01,22,14,30,38.60
2012,01,22,14,31,40.20
2012,01,22,14,32,37.00
2012,01,22,14,33,37.00
2012,01,22,14,34,38.60
2012,01,22,14,35,54.70
2012,01,22,14,36,53.10
2012,01,22,14,37,30.60
2012,01,22,14,38,37.00
2012,01,22,14,39,38.60
2012,01,22,14,40,32.20
2012,01,22,14,41,37.00
2012,01,22,14,42,29.00
2012,01,22,14,43,29.00
2012,01,22,14,44,32.20
2012,01,22,14,45,27.40
2012,01,22,14,46,29.00
2012,01,22,14,47,32.20
2012,01,22,14,48,35.40
2012,01,22,14,49,35.40
2012,01,22,14,50,29.00
2012,01,22,14,51,38.60
2012,01,22,14,52,29.00
2012,01,22,14,53,30.60
2012,01,22,14,54,22.50
2012,01,22,14,55,37.00
2012,01,22,14,56,40.20
2012,01,22,14,57,24.20
2012,01,22,14,58,35.40
2012,01,22,14,59,41.80
2012,01,22,15,00,49.90
2012,01,22,15,01,40.20
2012,01,22,15,02,45.10
2012,01,22,15,03,30.60
2012,01,22,15,04,37.00
2012,01,22,15,05,43.50
2012,01,22,15,06,27.40
2012,01,22,15,07,43.50
2012,01,22,15,08,53.10
2012,01,22,15,09,37.00
2012,01,22,15,10,35.40
2012,01,22,15,11,41.80
2012,01,22,15,12,38.60
2012,01,22,15,13,40.20
2012,01,22,15,14,48.30
2012,01,22,15,15,53.10
2012,01,22,15,16,43.50
2012,01,22,15,17,46.70
2012,01,22,15,18,37.00
2012,01,22,15,19,40.20
2012,01,22,15,20,35.40
2012,01,22,15,21,45.10
2012,01,22,15,22,49.90
2012,01,22,15,23,49.90
2012,01,22,15,24,51.50
2012,01,22,15,25,46.70
2012,01,22,15,26,32.20
2012,01,22,15,27,30.60
2012,01,22,15,28,32.20
2012,01,22,15,29,53.10
2012,01,22,15,30,37.00
2012,01,22,15,31,53.10
2012,01,22,15,32,38.60
2012,01,22,15,33,25.70
2012,01,22,15,34,45.10
2012,01,22,15,35,38.60
2012,01,22,15,36,41.80
2012,01,22,15,37,38.60
2012,01,22,15,38,32.20
2012,01,22,15,39,40.20
2012,01,22,15,40,35.40
2012,01,22,15,41,27.40
2012,01,22,15,42,35.40
2012,01,22,15,43,29.00
2012,01,22,15,44,35.40
2012,01,22,15,45,33.80
2012,01,22,15,46,33.80
2012,01,22,15,47,22.50
2012,01,22,15,48,40.20
2012,01,22,15,49,33.80
2012,01,22,15,50,45.10
2012,01,22,15,51,35.40
2012,01,22,15,52,27.40
2012,01,22,15,53,38.60
2012,01,22,15,54,29.00
2012,01,22,15,55,32.20
2012,01,22,15,56,29.00
2012,01,22,15,57,22.50
2012,01,22,15,58,30.60
2012,01,22,15,59,29.00
2012,01,22,16,00,37.00
2012,01,22,16,01,27.40
2012,01,22,16,02,25.70
2012,01,22,16,03,16.10
2012,01,22,16,04,24.20
2012,01,22,16,05,29.00
2012,01,22,16,06,38.60
2012,01,22,16,07,25.70
2012,01,22,16,08,30.60
2012,01,22,16,09,25.70
2012,01,22,16,10,29.00
2012,01,22,16,11,24.20
2012,01,22,16,12,32.20
2012,01,22,16,13,35.40
2012,01,22,16,14,32.20
2012,01,22,16,15,27.40
2012,01,22,16,16,27.40
2012,01,22,16,17,30.60
2012,01,22,16,18,19.30
2012,01,22,16,19,33.80
2012,01,22,16,20,17.70
2012,01,22,16,21,19.30
2012,01,22,16,22,20.90
2012,01,22,16,23,27.40
2012,01,22,16,24,33.80
2012,01,22,16,25,45.10
2012,01,22,16,26,40.20
2012,01,22,16,27,29.00
2012,01,22,16,28,24.20
2012,01,22,16,29,24.20
2012,01,22,16,30,30.60
2012,01,22,16,31,24.20
2012,01,22,16,32,22.50
2012,01,22,16,33,24.20
2012,01,22,16,34,22.50
2012,01,22,16,35,30.60
2012,01,22,16,36,30.60
2012,01,22,16,37,29.00
2012,01,22,16,38,24.20
2012,01,22,16,39,20.90
2012,01,22,16,40,29.00
2012,01,22,16,41,27.40
2012,01,22,16,42,20.90
2012,01,22,16,43,17.70
2012,01,22,16,44,19.30
2012,01,22,16,45,20.90
2012,01,22,16,46,25.70
2012,01,22,16,47,29.00
2012,01,22,16,48,25.70
2012,01,22,16,49,32.20
2012,01,22,16,50,35.40
2012,01,22,16,51,27.40
2012,01,22,16,52,30.60
2012,01,22,16,53,32.20
2012,01,22,16,54,25.70
2012,01,22,16,55,19.30
2012,01,22,16,56,25.70
2012,01,22,16,57,19.30
2012,01,22,16,58,20.90
2012,01,22,16,59,33.80
2012,01,22,17,00,27.40
2012,01,22,17,01,24.20
2012,01,22,17,02,33.80
2012,01,22,17,03,37.00
2012,01,22,17,04,29.00
2012,01,22,17,05,24.20
2012,01,22,17,06,27.40
2012,01,22,17,07,27.40
2012,01,22,17,08,29.00
2012,01,22,17,09,24.20
2012,01,22,17,10,27.40
2012,01,22,17,11,25.70
2012,01,22,17,12,25.70
2012,01,22,17,13,20.90
2012,01,22,17,14,29.00
2012,01,22,17,15,29.00
2012,01,22,17,16,49.90
2012,01,22,17,17,41.80
2012,01,22,17,18,29.00
2012,01,22,17,19,35.40
2012,01,22,17,20,33.80
2012,01,22,17,21,32.20
2012,01,22,17,22,40.20